Location: Brooks Farm Pond
(32.9618°N, 86.0700°W)
Time: 00:08:27
(UTC+00:00)

ERS-2 - Pass Details

Date: 29 October 2020
Orbit: 493 x 497 km, 98.6° (Epoch: 28 November)

Event Time Altitude Azimuth Distance (km) Brightness Sun altitude
Rises 23:33:06 0° 4° (N) 2,579 5.6 -8.5°
Reaches altitude 10° 23:35:15 10° 357° (N) 1,693 4.7 -9.0°
Maximum altitude 23:38:40 40° 287° (WNW) 740 3.6 -9.7°
Drops below altitude 10° 23:42:04 10° 216° (SW) 1,684 5.5 -10.4°
Sets 23:44:13 0° 209° (SSW) 2,563 6.3 -10.8°
